Regional Weather Roundup
Issued by NWS Albany, NY

Home | Current Version | Previous Version | Graphics & Text | Print | Product List | Glossary Off
Versions: 1 2 3 4 5 6 7 8 9 10 11 12 13 14 15 16 17 18 19 20 21 22 23 24 25 26 27 28 29 30 31 32 33 34 35 36 37 38 39 40 41 42 43 44 45 46 47 48 49 50

732
ASUS41 KALY 210710
RWRALY

NEW YORK STATE HOURLY WEATHER ROUNDUP
NATIONAL WEATHER SERVICE ALBANY NY
300 AM EDT SAT APR 21 2018

NOTE: "FAIR" INDICATES FEW OR NO CLOUDS BELOW 12,000 FEET WITH NO
SIGNIFICANT WEATHER AND/OR NO OBSTRUCTIONS TO VISIBILITY.

NYZ032-033-038>043-046>054-057>066-NYZ062>081-082-084-210800-
EAST


CITY           SKY/WX    TMP DP  RH WIND       PRES   REMARKS
ALBANY         MOCLDY    37  24  59 NW12      30.33S WCI  29
GLENS FALLS    MOCLDY    34  26  72 W6        30.31S WCI  29
POUGHKEEPSIE   FAIR      29  24  82 CALM      30.35S
NEWBURGH       CLEAR     32  27  80 W7        30.35S WCI  26
MONTGOMERY     FAIR      30  25  81 SW5       30.35R WCI  25
WHITE PLAINS   FAIR      35  24  64 NW10      30.34S WCI  27
ISLIP          FAIR      38  27  64 NW8       30.34S WCI  32
NEW YORK CITY  FAIR      42  26  53 NW9       30.37S
CENTRAL PARK   FAIR      40  24  53 W6        30.39S
$$

NYZ005>009-017-018-044>046-055-056-210800-
CENTRAL


CITY           SKY/WX    TMP DP  RH WIND       PRES   REMARKS
FULTON         FAIR      34  28  79 W6        30.39R WCI  29
SYRACUSE       FAIR      30  24  78 SW7       30.39R WCI  23
ROME           FAIR      25  21  85 CALM      30.39R
ELMIRA         FAIR      26  23  88 SW6       30.40S WCI  19
BINGHAMTON     FAIR      29  21  72 NW6       30.34S WCI  23
MONTICELLO       N/A     29  24  82 W8        30.35R WCI  21
$$

NYZ026>034-041>043-087-210800-
NORTH


CITY           SKY/WX    TMP DP  RH WIND       PRES   REMARKS
WATERTOWN      FAIR      30  28  92 S5        30.37R WCI  25
FORT DRUM      NOT AVBL
OGDENSBURG     FAIR      32  27  84 NW3       30.35S
MASSENA        FAIR      31  24  75 W5        30.35R WCI  26
SARANAC LAKE   FAIR      26  25  96 SW3       30.26S
PLATTSBURGH    CLOUDY    40  24  53 W5        30.29R
$$

NYZ001>004-010>016-019>021-085-210800-
WEST


CITY           SKY/WX    TMP DP  RH WIND       PRES   REMARKS
NIAGARA FALLS  FAIR      31  23  72 CALM      30.44F
BUFFALO        FAIR      32  30  92 CALM      30.44S
DUNKIRK        FAIR      26  25  96 S5        30.46S WCI  20
JAMESTOWN      FAIR      31  26  82 N5        30.41S WCI  26
WELLSVILLE     FAIR      30  24  78 NW5       30.39S WCI  25
ROCHESTER      FAIR      34  26  72 W6        30.43S WCI  29
PENN YAN       FAIR      36  21  54 SW7       30.39S WCI  30
$$

             KEY
       WCI = WIND CHILL INDEX
       VSB = VISIBILITY
       HX  = HEAT INDEX
$$




USA.gov is the U.S. government's official web portal to all federal, state and local government web resources and services.